Time,TemperatureF,DewpointF,PressureIn,WindDirection,WindDirectionDegrees,WindSpeedMPH,WindSpeedGustMPH,Humidity,HourlyPrecipIn,Conditions,Clouds,dailyrainin,SoftwareType,DateUTC
2013-07-12 00:02:00,62.0,54.0,-100.00,North,11,0.0,0.0,75,0.00,,,0.00,,2013-07-12 07:02:00,
2013-07-12 00:12:00,62.0,54.0,-100.00,North,11,0.0,0.0,75,0.00,,,0.00,,2013-07-12 07:12:00,
2013-07-12 00:22:00,62.0,54.0,-100.00,North,11,0.0,0.0,75,0.00,,,0.00,,2013-07-12 07:22:00,
2013-07-12 00:52:00,61.0,53.0,-100.00,WNW,292,0.0,0.0,76,0.00,,,0.00,,2013-07-12 07:52:00,
2013-07-12 01:01:00,61.0,53.0,-100.00,WNW,292,0.0,0.0,76,0.00,,,0.00,,2013-07-12 08:01:00,
2013-07-12 01:11:00,61.0,53.0,-100.00,WNW,292,0.0,0.0,76,0.00,,,0.00,,2013-07-12 08:11:00,
2013-07-12 01:21:00,61.0,53.0,-100.00,WNW,292,0.0,0.0,76,0.00,,,0.00,,2013-07-12 08:21:00,
2013-07-12 01:53:00,58.0,53.0,-100.00,NNE,17,0.0,3.0,82,0.00,,,0.00,,2013-07-12 08:53:00,
2013-07-12 02:02:00,58.0,53.0,-100.00,NNE,17,0.0,3.0,82,0.00,,,0.00,,2013-07-12 09:02:00,
2013-07-12 02:12:00,58.0,53.0,-100.00,NNE,17,0.0,3.0,82,0.00,,,0.00,,2013-07-12 09:12:00,
2013-07-12 02:22:00,58.0,53.0,-100.00,NNE,17,0.0,3.0,82,0.00,,,0.00,,2013-07-12 09:22:00,
2013-07-12 02:52:00,58.0,52.0,-100.00,NNE,24,0.0,0.0,81,0.00,,,0.00,,2013-07-12 09:52:00,
2013-07-12 03:01:00,58.0,52.0,-100.00,NNE,24,0.0,0.0,81,0.00,,,0.00,,2013-07-12 10:01:00,
2013-07-12 03:11:00,58.0,52.0,-100.00,NNE,24,0.0,0.0,81,0.00,,,0.00,,2013-07-12 10:11:00,
2013-07-12 03:22:00,58.0,52.0,-100.00,NNE,24,0.0,0.0,81,0.00,,,0.00,,2013-07-12 10:22:00,
2013-07-12 03:52:00,59.0,51.0,-100.00,NNE,25,0.0,0.0,76,0.00,,,0.00,,2013-07-12 10:52:00,
2013-07-12 04:02:00,59.0,51.0,-100.00,NNE,25,0.0,0.0,76,0.00,,,0.00,,2013-07-12 11:02:00,
2013-07-12 04:11:00,59.0,51.0,-100.00,NNE,25,0.0,0.0,76,0.00,,,0.00,,2013-07-12 11:11:00,
2013-07-12 04:22:00,59.0,51.0,-100.00,NNE,25,0.0,0.0,76,0.00,,,0.00,,2013-07-12 11:22:00,
2013-07-12 05:11:00,58.0,51.0,-100.00,WNW,287,0.0,0.0,77,0.00,,,0.00,,2013-07-12 12:11:00,
2013-07-12 05:22:00,58.0,51.0,-100.00,WNW,287,0.0,0.0,77,0.00,,,0.00,,2013-07-12 12:22:00,
2013-07-12 05:52:00,60.0,52.0,-100.00,SSE,159,0.0,0.0,76,0.00,,,0.00,,2013-07-12 12:52:00,
2013-07-12 06:01:00,60.0,52.0,-100.00,SSE,159,0.0,0.0,76,0.00,,,0.00,,2013-07-12 13:01:00,
2013-07-12 06:12:00,60.0,52.0,-100.00,SSE,159,0.0,0.0,76,0.00,,,0.00,,2013-07-12 13:12:00,
2013-07-12 06:22:00,60.0,52.0,-100.00,SSE,159,0.0,0.0,76,0.00,,,0.00,,2013-07-12 13:22:00,
2013-07-12 06:53:00,61.0,53.0,-100.00,SE,124,0.0,0.0,75,0.00,,,0.00,,2013-07-12 13:53:00,
2013-07-12 07:02:00,61.0,53.0,-100.00,SE,124,0.0,0.0,75,0.00,,,0.00,,2013-07-12 14:02:00,
2013-07-12 07:11:00,61.0,53.0,-100.00,SE,124,0.0,0.0,75,0.00,,,0.00,,2013-07-12 14:11:00,
2013-07-12 07:22:00,61.0,53.0,-100.00,SE,124,0.0,0.0,75,0.00,,,0.00,,2013-07-12 14:22:00,
2013-07-12 07:53:00,69.0,53.0,-100.00,SSW,199,0.0,0.0,57,0.00,,,0.00,,2013-07-12 14:53:00,
2013-07-12 08:01:00,69.0,53.0,-100.00,SSW,199,0.0,0.0,57,0.00,,,0.00,,2013-07-12 15:01:00,
2013-07-12 08:11:00,69.0,53.0,-100.00,SSW,199,0.0,0.0,57,0.00,,,0.00,,2013-07-12 15:11:00,
2013-07-12 08:22:00,69.0,53.0,-100.00,SSW,199,0.0,0.0,57,0.00,,,0.00,,2013-07-12 15:22:00,
2013-07-12 08:53:00,78.0,47.0,-100.00,WNW,298,0.0,0.0,33,0.00,,,0.00,,2013-07-12 15:53:00,
2013-07-12 09:01:00,78.0,47.0,-100.00,WNW,298,0.0,0.0,33,0.00,,,0.00,,2013-07-12 16:01:00,
2013-07-12 09:11:00,78.0,47.0,-100.00,WNW,298,0.0,0.0,33,0.00,,,0.00,,2013-07-12 16:11:00,
2013-07-12 09:22:00,78.0,47.0,-100.00,WNW,298,0.0,0.0,33,0.00,,,0.00,,2013-07-12 16:22:00,
2013-07-12 09:58:00,81.0,47.0,-100.00,East,98,0.0,5.0,30,0.00,,,0.00,,2013-07-12 16:58:00,
2013-07-12 10:04:00,81.0,47.0,-100.00,East,98,0.0,5.0,30,0.00,,,0.00,,2013-07-12 17:04:00,
2013-07-12 10:12:00,81.0,47.0,-100.00,East,98,0.0,5.0,30,0.00,,,0.00,,2013-07-12 17:12:00,
2013-07-12 10:22:00,81.0,47.0,-100.00,East,98,0.0,5.0,30,0.00,,,0.00,,2013-07-12 17:22:00,
2013-07-12 11:12:00,87.0,47.0,-100.00,South,180,4.0,6.0,25,0.00,,,0.00,,2013-07-12 18:12:00,
2013-07-12 11:56:00,86.0,47.0,-100.00,SSW,196,4.0,11.0,26,0.00,,,0.00,,2013-07-12 18:56:00,
2013-07-12 12:03:00,86.0,47.0,-100.00,SSW,196,4.0,11.0,26,0.00,,,0.00,,2013-07-12 19:03:00,
2013-07-12 12:13:00,86.0,47.0,-100.00,SSW,196,4.0,11.0,26,0.00,,,0.00,,2013-07-12 19:13:00,
2013-07-12 12:22:00,86.0,47.0,-100.00,SSW,196,4.0,11.0,26,0.00,,,0.00,,2013-07-12 19:22:00,
2013-07-12 12:58:00,78.0,52.0,-100.00,South,171,3.0,15.0,40,0.00,,,0.00,,2013-07-12 19:58:00,
2013-07-12 13:22:00,78.0,52.0,-100.00,South,171,3.0,15.0,40,0.00,,,0.00,,2013-07-12 20:22:00,
2013-07-12 13:55:00,75.0,53.0,-100.00,North,353,0.0,16.0,47,0.00,,,0.00,,2013-07-12 20:55:00,
2013-07-12 14:02:00,75.0,53.0,-100.00,North,353,0.0,16.0,47,0.00,,,0.00,,2013-07-12 21:02:00,
2013-07-12 14:13:00,75.0,53.0,-100.00,North,353,0.0,16.0,47,0.00,,,0.00,,2013-07-12 21:13:00,
2013-07-12 14:23:00,75.0,53.0,-100.00,North,353,0.0,16.0,47,0.00,,,0.00,,2013-07-12 21:23:00,
2013-07-12 15:55:00,83.0,52.0,-100.00,WNW,293,0.0,19.0,34,-99.99,,,0.00,,2013-07-12 22:55:00,
2013-07-12 16:03:00,83.0,52.0,-100.00,WNW,293,0.0,19.0,34,-99.99,,,0.00,,2013-07-12 23:03:00,
2013-07-12 16:12:00,83.0,52.0,-100.00,WNW,293,0.0,19.0,34,-99.99,,,0.00,,2013-07-12 23:12:00,
2013-07-12 16:22:00,83.0,52.0,-100.00,WNW,293,0.0,19.0,34,-99.99,,,0.00,,2013-07-12 23:22:00,
2013-07-12 16:57:00,88.0,50.0,-100.00,South,184,4.0,8.0,27,0.00,,,0.00,,2013-07-12 23:57:00,
2013-07-12 17:03:00,88.0,50.0,-100.00,South,184,4.0,8.0,27,0.00,,,0.00,,2013-07-13 00:03:00,
2013-07-12 17:14:00,88.0,50.0,-100.00,South,184,4.0,8.0,27,0.00,,,0.00,,2013-07-13 00:14:00,
2013-07-12 17:22:00,88.0,50.0,-100.00,South,184,4.0,8.0,27,0.00,,,0.00,,2013-07-13 00:22:00,
2013-07-12 18:02:00,84.0,52.0,-100.00,WNW,299,4.0,11.0,33,0.00,,,0.00,,2013-07-13 01:02:00,
2013-07-12 18:11:00,84.0,52.0,-100.00,WNW,299,4.0,11.0,33,0.00,,,0.00,,2013-07-13 01:11:00,
2013-07-12 18:56:00,82.0,55.0,-100.00,NW,319,3.0,17.0,40,0.00,,,0.00,,2013-07-13 01:56:00,
2013-07-12 19:04:00,82.0,55.0,-100.00,NW,319,3.0,17.0,40,0.00,,,0.00,,2013-07-13 02:04:00,
2013-07-12 19:13:00,82.0,55.0,-100.00,NW,319,3.0,17.0,40,0.00,,,0.00,,2013-07-13 02:13:00,
2013-07-12 19:22:00,82.0,55.0,-100.00,NW,319,3.0,17.0,40,0.00,,,0.00,,2013-07-13 02:22:00,
2013-07-12 19:55:00,75.0,56.0,-100.00,North,3,3.0,13.0,51,0.00,,,0.00,,2013-07-13 02:55:00,
2013-07-12 20:12:00,75.0,56.0,-100.00,North,3,3.0,13.0,51,0.00,,,0.00,,2013-07-13 03:12:00,
2013-07-12 20:23:00,75.0,56.0,-100.00,North,3,3.0,13.0,51,0.00,,,0.00,,2013-07-13 03:23:00,
2013-07-12 20:57:00,69.0,55.0,-100.00,North,352,0.0,10.0,62,0.00,,,0.00,,2013-07-13 03:57:00,
2013-07-12 21:01:00,69.0,55.0,-100.00,North,352,0.0,10.0,62,0.00,,,0.00,,2013-07-13 04:01:00,
2013-07-12 21:11:00,69.0,55.0,-100.00,North,352,0.0,10.0,62,0.00,,,0.00,,2013-07-13 04:11:00,
2013-07-12 21:22:00,69.0,55.0,-100.00,North,352,0.0,10.0,62,0.00,,,0.00,,2013-07-13 04:22:00,
2013-07-12 21:52:00,67.0,56.0,-100.00,NNW,339,0.0,6.0,69,0.00,,,0.00,,2013-07-13 04:52:00,
2013-07-12 22:01:00,67.0,56.0,-100.00,NNW,339,0.0,6.0,69,0.00,,,0.00,,2013-07-13 05:01:00,
2013-07-12 22:11:00,67.0,56.0,-100.00,NNW,339,0.0,6.0,69,0.00,,,0.00,,2013-07-13 05:11:00,
2013-07-12 22:21:00,67.0,56.0,-100.00,NNW,339,0.0,6.0,69,0.00,,,0.00,,2013-07-13 05:21:00,
2013-07-12 22:52:00,62.0,55.0,-100.00,NNE,14,0.0,3.0,77,0.00,,,0.00,,2013-07-13 05:52:00,
2013-07-12 23:01:00,62.0,55.0,-100.00,NNE,14,0.0,3.0,77,0.00,,,0.00,,2013-07-13 06:01:00,
2013-07-12 23:11:00,62.0,55.0,-100.00,NNE,14,0.0,3.0,77,0.00,,,0.00,,2013-07-13 06:11:00,
2013-07-12 23:22:00,62.0,55.0,-100.00,NNE,14,0.0,3.0,77,0.00,,,0.00,,2013-07-13 06:22:00,
2013-07-12 23:52:00,61.0,55.0,-100.00,WNW,298,0.0,0.0,80,0.00,,,0.00,,2013-07-13 06:52:00,